< < Back
Terminal Aerodrome Forecast


Current Version              Previous Versions:   1  2  3  4  5  6  7  8  9  

Terminal Aerodrome Forecast

866
FTAK31 PAJN 012200 AAB
TAFAGS
TAF AMD
PAGS 012232Z 0123/0218 31004KT P6SM -SHRA FEW008 SCT012 OVC022
      TEMPO 0123/0203 2SM -SHRA BR BKN004 OVC007
     FM020300 24005KT P6SM FEW015 SCT060
     FM020800 24005KT P6SM VCFG FEW015 SCT060
     FM021100 00000KT 1/2SM FG BKN003
     FM021500 13003KT 3SM BR OVC015
      AMD NOT SKED=



Latest METAR

072
SAUS70 KWBC 010400 RRX
MTRAGS
METAR KAGS 020353Z AUTO 29005KT 8SM CLR 25/24 A3009 RMK AO2 SLP187
T02500239


USA.gov is the U.S. government's official web portal to all federal, state and local government web resources and services.